CW4740 Weather Reports


Display with metric or nautical units.
time (UTC)temp
F
wind
direction
speed
MPH
gust
MPH
rain 1hr
in
rain 24hr
in
rain mn
in
humidity
%
barometer
mb
20260906033706 77 346 0.0 0.0 0.00 0.42 0.42 92 1013.9
20260906033204 77 346 0.0 0.0 0.00 0.42 0.42 92 1013.8
20260906032701 77 346 0.0 0.0 0.00 0.42 0.42 92 1013.8
20260906032137 77 346 0.0 0.0 0.00 0.42 0.42 92 1013.8
20260906031654 77 346 0.0 0.0 0.00 0.42 0.42 92 1013.9
20260906031131 77 346 0.0 0.0 0.00 0.42 0.42 91 1014.1
20260906030727 77 346 0.0 0.0 0.00 0.42 0.42 91 1014.3
20260906030222 77 346 0.0 0.0 0.00 0.42 0.42 91 1014.3
20260906025708 77 346 0.0 0.0 0.00 0.42 0.42 91 1014.4
20260906025225 77 346 0.0 0.0 0.00 0.42 0.42 91 1014.6
20260906025142 77 346 0.0 0.0 0.00 0.42 0.42 91 1014.6
20260906024700 77 346 0.0 0.0 0.00 0.42 0.42 91 1014.8
20260906024217 77 346 0.0 0.0 0.00 0.42 0.42 91 1015.0
20260906023713 77 346 0.0 0.0 0.00 0.42 0.42 90 1015.0
20260906023149 77 346 0.0 0.0 0.00 0.42 0.42 90 1015.0
20260906022647 77 346 0.0 0.0 0.00 0.42 0.42 90 1015.2
20260906022144 77 346 0.0 0.0 0.00 0.42 0.42 90 1015.2
20260906021643 77 346 0.0 0.0 0.00 0.42 0.42 91 1015.2
20260906021242 77 346 0.0 0.0 0.00 0.42 0.42 91 1015.3
20260906020637 77 346 0.0 4.0 0.00 0.42 0.42 91 1015.3
20260906020136 77 346 1.0 4.0 0.00 0.42 0.42 92 1015.3
20260906015646 77 321 2.0 4.0 0.00 0.42 0.42 92 1015.4
20260906015205 77 304 3.0 6.0 0.00 0.42 0.42 93 1015.3
20260906014642 77 341 3.0 10.0 0.00 0.42 0.42 93 1015.4
20260906014139 77 325 5.0 10.0 0.00 0.42 0.42 93 1015.4
20260906013638 77 336 4.0 8.0 0.00 0.42 0.42 94 1015.3
20260906013235 78 296 4.0 8.0 0.00 0.42 0.42 94 1015.2
20260906013132 78 296 4.0 8.0 0.00 0.42 0.42 94 1015.2
20260906012649 78 320 2.0 5.0 0.00 0.42 0.42 94 1015.1
20260906012145 78 263 1.0 3.0 0.00 0.42 0.42 94 1015.0
20260906011703 78 254 0.0 0.0 0.00 0.42 0.42 95 1014.9
20260906011159 78 254 0.0 0.0 0.00 0.42 0.42 94 1014.9
20260906010636 78 254 0.0 0.0 0.00 0.42 0.42 94 1014.8
20260906010135 78 254 0.0 0.0 0.00 0.42 0.42 94 1014.8
20260906005703 78 254 0.0 0.0 0.00 0.42 0.42 94 1014.7
20260906005241 78 254 0.0 0.0 0.00 0.42 0.42 94 1014.7
20260906005137 78 254 0.0 0.0 0.00 0.42 0.42 94 1014.7
20260906004655 77 254 0.0 0.0 0.00 0.42 0.42 94 1014.7
20260906004130 77 254 0.0 0.0 0.00 0.42 0.42 94 1014.6
20260906003726 78 254 0.0 0.0 0.00 0.42 0.42 94 1014.5
20260906003236 78 254 0.0 0.0 0.00 0.42 0.42 94 1014.3
20260906003154 78 254 0.0 0.0 0.00 0.42 0.42 94 1014.3
20260906002652 78 254 0.0 4.0 0.00 0.42 0.42 94 1014.2
20260906002134 78 254 1.0 4.0 0.00 0.42 0.42 95 1014.0
20260906001631 78 263 2.0 5.0 0.00 0.42 0.42 95 1014.0
20260906001149 78 251 1.0 5.0 0.00 0.42 0.42 95 1013.9
20260906000707 78 262 1.0 6.0 0.00 0.42 0.42 95 1013.9
20260906000142 78 259 4.0 5.0 0.00 0.42 0.42 95 1014.0
20260905235629 78 262 1.0 4.0 0.00 0.42 0.42 95 1014.1
20260905235146 78 272 0.0 1.0 0.00 0.42 0.42 95 1014.0
20260905234642 78 272 0.0 0.0 0.00 0.42 0.42 95 1013.9
20260905234159 78 272 0.0 0.0 0.01 0.42 0.42 95 1013.7
20260905233635 78 272 0.0 0.0 0.01 0.42 0.42 94 1013.8
20260905233213 78 272 0.0 0.0 0.02 0.42 0.42 94 1013.7
20260905233130 78 272 0.0 0.0 0.02 0.42 0.42 94 1013.7
20260905232728 78 272 0.0 0.0 0.02 0.42 0.42 94 1013.8
20260905232219 78 272 0.0 0.0 0.03 0.42 0.42 94 1013.9
20260905232137 78 272 0.0 0.0 0.03 0.42 0.42 94 1013.9
20260905231654 78 272 0.0 0.0 0.03 0.42 0.42 94 1014.0
20260905231135 78 272 0.0 2.0 0.03 0.42 0.42 94 1014.0
20260905230633 78 272 0.0 2.0 0.03 0.42 0.42 94 1014.2
20260905230211 78 272 0.0 4.0 0.03 0.42 0.42 93 1014.1
20260905230129 78 272 0.0 4.0 0.03 0.42 0.42 93 1014.1
20260905225734 78 273 0.0 8.0 0.03 0.42 0.42 93 1014.3
20260905225652 78 273 0.0 8.0 0.03 0.42 0.42 93 1014.3
20260905225249 78 269 3.0 8.0 0.03 0.42 0.42 93 1014.2
20260905224644 78 252 4.0 12.0 0.03 0.42 0.42 92 1014.3
20260905224202 78 238 6.0 12.0 0.02 0.41 0.41 92 1014.3
20260905223700 79 234 4.0 10.0 0.02 0.41 0.41 91 1014.2
20260905223157 79 254 5.0 14.0 0.01 0.40 0.40 90 1014.2
20260905222653 80 241 6.0 16.0 0.01 0.40 0.40 89 1014.2
20260905222208 81 271 10.0 16.0 0.00 0.39 0.39 88 1014.3
20260905221703 83 264 6.0 11.0 0.00 0.39 0.39 89 1014.4
20260905221200 83 271 0.0 4.0 0.00 0.39 0.39 88 1014.2
20260905220637 83 271 1.0 6.0 0.00 0.39 0.39 88 1014.1
20260905220135 83 271 2.0 6.0 0.00 0.39 0.39 88 1014.1
20260905215744 83 272 3.0 6.0 0.00 0.39 0.39 88 1014.1
20260905215137 83 272 3.0 6.0 0.00 0.39 0.39 88 1014.1
20260905214656 83 283 3.0 7.0 0.00 0.39 0.39 87 1014.0
20260905214152 83 275 2.0 3.0 0.00 0.39 0.39 87 1013.9
20260905213648 83 144 1.0 2.0 0.00 0.39 0.39 87 1013.6
20260905213207 83 144 0.0 3.0 0.00 0.39 0.39 87 1013.5
20260905212642 83 144 1.0 3.0 0.00 0.39 0.39 88 1013.3
20260905212142 83 144 1.0 3.0 0.00 0.39 0.39 87 1013.4
20260905211720 83 144 0.0 3.0 0.01 0.39 0.39 88 1013.3
20260905211216 83 144 1.0 3.0 0.01 0.39 0.39 88 1013.0
20260905210711 83 144 0.0 3.0 0.01 0.39 0.39 88 1013.0
20260905210227 82 144 1.0 3.0 0.01 0.39 0.39 88 1013.0
20260905205655 82 144 2.0 3.0 0.01 0.39 0.39 88 1013.1
20260905205151 82 144 1.0 3.0 0.01 0.39 0.39 88 1013.2
20260905204727 81 144 2.0 5.0 0.01 0.39 0.39 88 1013.2
20260905204202 81 144 1.0 6.0 0.01 0.39 0.39 88 1012.9
20260905203637 80 146 2.0 6.0 0.01 0.39 0.39 86 1012.8
20260905203214 80 126 2.0 6.0 0.01 0.39 0.39 86 1012.7
20260905202630 80 207 1.0 8.0 0.01 0.39 0.39 86 1012.8
20260905202148 81 148 4.0 10.0 0.01 0.39 0.39 86 1013.0
20260905201706 82 191 4.0 10.0 0.00 0.38 0.38 87 1013.1
20260905201202 82 198 4.0 10.0 0.00 0.38 0.38 86 1013.4
20260905200700 83 175 4.0 11.0 0.00 0.38 0.38 86 1014.0
20260905200138 84 242 4.0 10.0 0.00 0.38 0.38 85 1014.0
20260905195643 85 182 5.0 11.0 0.00 0.38 0.38 84 1013.9
20260905195139 86 220 4.0 10.0 0.00 0.38 0.38 82 1013.7
20260905194635 87 254 4.0 10.0 0.00 0.38 0.38 82 1013.8
20260905194152 87 134 4.0 7.0 0.00 0.38 0.38 84 1013.7
20260905193708 86 121 2.0 7.0 0.00 0.38 0.38 86 1013.7
20260905193226 86 146 3.0 7.0 0.00 0.38 0.38 87 1013.9
20260905192641 85 78 2.0 5.0 0.00 0.38 0.38 89 1013.8
20260905192140 85 78 3.0 5.0 0.00 0.38 0.38 90 1013.6
20260905191718 84 78 2.0 4.0 0.00 0.38 0.38 90 1013.6
20260905191134 84 78 2.0 4.0 0.00 0.38 0.38 91 1013.6
20260905190651 84 78 3.0 4.0 0.00 0.38 0.38 91 1013.5
20260905190227 84 78 3.0 4.0 0.01 0.38 0.38 91 1013.6
20260905185654 83 78 2.0 3.0 0.06 0.38 0.38 91 1013.8
20260905185131 83 78 2.0 3.0 0.19 0.38 0.38 91 1013.8
20260905184629 83 78 0.0 4.0 0.20 0.38 0.38 91 1013.9
20260905184147 83 78 2.0 4.0 0.20 0.38 0.38 91 1013.8
20260905183644 83 78 3.0 5.0 0.20 0.38 0.38 91 1013.8
20260905183142 83 78 2.0 5.0 0.20 0.38 0.38 91 1014.0
20260905182640 83 78 3.0 5.0 0.20 0.38 0.38 91 1014.0
20260905182158 83 78 2.0 5.0 0.20 0.38 0.38 90 1014.0
20260905181635 83 78 3.0 5.0 0.20 0.38 0.38 89 1014.2
20260905181133 83 46 2.0 5.0 0.20 0.38 0.38 89 1014.3
20260905180711 84 101 2.0 6.0 0.20 0.38 0.38 87 1014.3
20260905180147 84 101 3.0 11.0 0.19 0.41 0.37 85 1014.4
20260905175717 86 5 7.0 11.0 0.12 0.34 0.30 81 1014.5
20260905175634 86 5 7.0 11.0 0.12 0.34 0.30 81 1014.5
20260905175153 87 31 6.0 11.0 0.00 0.22 0.18 77 1014.5
20260905174630 88 5 5.0 11.0 0.00 0.22 0.18 76 1014.5
20260905174207 89 355 5.0 11.0 0.00 0.22 0.18 74 1014.5
20260905173643 90 331 3.0 8.0 0.00 0.22 0.18 71 1014.5
20260905173200 91 139 5.0 12.0 0.00 0.22 0.18 70 1014.3
20260905172657 91 148 4.0 12.0 0.00 0.22 0.18 72 1014.4
20260905172134 90 120 5.0 11.0 0.00 0.22 0.18 71 1014.3
20260905171652 91 157 6.0 12.0 0.00 0.22 0.18 70 1014.4
20260905171249 91 128 6.0 13.0 0.00 0.22 0.18 69 1014.4
20260905170644 91 143 7.0 13.0 0.00 0.22 0.18 70 1014.4
20260905170203 91 141 4.0 12.0 0.00 0.22 0.18 72 1014.2
20260905165710 91 111 8.0 12.0 0.00 0.22 0.18 71 1014.5
20260905165207 91 145 5.0 10.0 0.00 0.22 0.18 72 1014.5
20260905164644 90 146 5.0 8.0 0.00 0.22 0.18 73 1014.6
20260905164140 90 140 6.0 10.0 0.00 0.22 0.18 73 1014.7
20260905163718 90 123 4.0 11.0 0.00 0.22 0.18 73 1015.0
20260905163152 90 108 7.0 11.0 0.00 0.22 0.18 72 1015.0
20260905162708 91 107 5.0 14.0 0.00 0.22 0.18 72 1014.9
20260905162244 91 104 8.0 13.0 0.00 0.22 0.18 72 1015.0
20260905161718 91 111 6.0 12.0 0.00 0.22 0.18 72 1015.0
20260905161249 91 115 8.0 14.0 0.00 0.22 0.18 72 1015.1
20260905161146 91 115 8.0 14.0 0.00 0.22 0.18 72 1015.1
20260905160643 91 118 8.0 14.0 0.00 0.22 0.18 72 1015.0
20260905160220 91 143 6.0 10.0 0.00 0.22 0.18 73 1015.2
20260905160138 91 143 6.0 10.0 0.00 0.22 0.18 73 1015.2
20260905155744 91 174 5.0 9.0 0.00 0.22 0.18 73 1015.2
20260905155158 90 109 3.0 11.0 0.00 0.22 0.18 75 1015.3
20260905154656 90 133 4.0 10.0 0.00 0.22 0.18 74 1015.3
20260905154152 90 132 5.0 9.0 0.00 0.22 0.18 74 1015.3
20260905153708 90 148 4.0 9.0 0.00 0.22 0.18 76 1015.4
20260905153204 90 123 6.0 9.0 0.00 0.22 0.18 75 1015.5
20260905152702 90 152 3.0 5.0 0.00 0.22 0.18 76 1015.5
20260905152240 90 236 2.0 10.0 0.00 0.22 0.18 75 1015.4
20260905152157 90 236 2.0 10.0 0.00 0.22 0.18 75 1015.4
20260905151634 90 139 6.0 10.0 0.00 0.22 0.18 77 1015.4
20260905151232 90 248 3.0 7.0 0.00 0.22 0.18 75 1015.5
20260905150707 90 146 2.0 9.0 0.00 0.22 0.18 77 1015.5
20260905150224 89 100 3.0 9.0 0.00 0.44 0.18 78 1015.5
20260905145710 89 148 3.0 7.0 0.00 0.44 0.18 78 1015.5
20260905145221 89 142 5.0 8.0 0.00 0.44 0.18 79 1015.4
20260905145139 89 142 5.0 8.0 0.00 0.44 0.18 79 1015.4
20260905144656 88 146 1.0 7.0 0.00 0.44 0.18 81 1015.4
20260905144152 88 150 2.0 7.0 0.00 0.44 0.18 82 1015.5
20260905143728 88 239 4.0 8.0 0.00 0.44 0.18 82 1015.4
20260905143224 87 203 3.0 8.0 0.00 0.44 0.18 83 1015.4
20260905142641 87 187 5.0 14.0 0.00 0.44 0.18 81 1015.3
20260905142139 88 140 4.0 12.0 0.00 0.44 0.18 80 1015.4
20260905141637 88 134 4.0 8.0 0.00 0.44 0.18 80 1015.3
20260905141141 88 117 2.0 3.0 0.00 0.44 0.18 80 1015.1
20260905140714 88 118 1.0 3.0 0.00 0.44 0.18 81 1015.1
20260905140135 88 118 1.0 3.0 0.00 0.68 0.18 81 1015.1
20260905135644 87 118 1.0 3.0 0.00 0.68 0.18 83 1015.2
20260905135141 87 118 1.0 3.0 0.00 0.68 0.18 82 1015.3
20260905134657 86 117 1.0 6.0 0.00 0.68 0.18 83 1015.3
20260905134133 86 117 2.0 6.0 0.00 0.68 0.18 84 1015.3
20260905133630 85 117 3.0 6.0 0.00 0.68 0.18 87 1015.4
20260905133147 85 117 2.0 6.0 0.00 0.68 0.18 89 1015.4
20260905132644 84 117 2.0 6.0 0.00 0.68 0.18 90 1015.4
20260905132221 84 117 1.0 4.0 0.00 0.68 0.18 93 1015.6
20260905131637 84 115 0.0 0.0 0.00 0.68 0.18 95 1015.5
20260905131134 83 115 0.0 0.0 0.00 0.68 0.18 95 1015.6
20260905130632 83 115 0.0 0.0 0.00 0.68 0.18 95 1015.6
20260905130131 82 115 0.0 0.0 0.00 0.68 0.18 96 1015.6
20260905125640 82 115 0.0 0.0 0.00 0.68 0.18 96 1015.6
20260905125138 82 115 0.0 0.0 0.00 0.68 0.18 96 1015.5
20260905124736 82 115 0.0 0.0 0.00 0.68 0.18 97 1015.5
20260905124151 82 115 0.0 0.0 0.00 0.68 0.18 97 1015.5
20260905123628 82 115 0.0 0.0 0.00 0.68 0.18 96 1015.6
20260905123206 82 115 0.0 0.0 0.00 0.68 0.18 96 1015.8
20260905122641 82 115 0.0 0.0 0.00 0.68 0.18 96 1015.8
20260905122218 82 115 0.0 0.0 0.00 0.68 0.18 96 1015.6
20260905121653 82 115 0.0 0.0 0.00 0.68 0.18 97 1015.6
20260905121209 82 115 0.0 0.0 0.00 0.68 0.18 97 1015.4
20260905120705 81 115 0.0 0.0 0.00 0.68 0.18 97 1015.4
20260905120143 81 115 0.0 0.0 0.00 0.68 0.18 97 1015.4
20260905115712 81 115 0.0 0.0 0.00 0.68 0.18 97 1015.3
20260905115128 81 115 0.0 0.0 0.00 0.68 0.18 97 1015.1
20260905114727 81 115 0.0 0.0 0.00 0.68 0.18 96 1015.0
20260905114223 81 115 0.0 0.0 0.00 0.68 0.18 96 1015.0
20260905113638 81 115 0.0 0.0 0.00 0.68 0.18 96 1014.9
20260905113236 81 115 0.0 0.0 0.00 0.68 0.18 96 1014.8
20260905112728 81 115 0.0 0.0 0.00 0.68 0.18 96 1014.8
20260905112223 81 115 0.0 0.0 0.00 0.68 0.18 96 1014.8
20260905111657 81 115 0.0 0.0 0.00 0.68 0.18 96 1014.8
20260905111134 81 115 0.0 0.0 0.00 0.68 0.18 96 1014.6
20260905110631 80 115 0.0 0.0 0.00 0.68 0.18 96 1014.7
20260905110132 80 115 0.0 0.0 0.00 0.68 0.18 96 1014.7
20260905105640 80 115 0.0 0.0 0.00 0.68 0.18 96 1014.7
20260905105137 81 115 0.0 0.0 0.00 0.68 0.18 96 1014.6
20260905104654 81 115 0.0 0.0 0.00 0.68 0.18 96 1014.6
20260905104130 81 115 0.0 0.0 0.00 0.68 0.18 96 1014.8
20260905103703 81 115 0.0 0.0 0.00 0.68 0.18 96 1014.8
20260905103142 81 115 0.0 0.0 0.00 0.68 0.18 96 1014.7
20260905102640 80 115 0.0 0.0 0.00 0.68 0.18 95 1014.6
20260905102138 81 115 0.0 0.0 0.00 0.68 0.18 95 1014.6
20260905101736 81 115 0.0 0.0 0.00 0.68 0.18 95 1014.6
20260905101152 80 115 0.0 0.0 0.00 0.68 0.18 95 1014.6
20260905100648 80 115 0.0 0.0 0.00 0.68 0.18 95 1014.6
20260905100205 80 115 0.0 0.0 0.00 0.68 0.18 95 1014.5
20260905095630 80 115 0.0 0.0 0.00 0.68 0.18 95 1014.5
20260905095148 80 115 0.0 0.0 0.00 0.68 0.18 95 1014.5
20260905094646 80 115 0.0 0.0 0.00 0.68 0.18 94 1014.5
20260905094203 80 115 0.0 0.0 0.00 0.68 0.18 94 1014.3
20260905093720 80 115 0.0 0.0 0.00 0.68 0.18 94 1014.3
20260905093136 81 115 0.0 0.0 0.01 0.68 0.18 94 1014.2
20260905092635 81 115 0.0 0.0 0.01 0.68 0.18 94 1014.3
20260905092233 81 115 0.0 0.0 0.02 0.68 0.18 94 1014.2
20260905091705 81 115 0.0 0.0 0.10 0.68 0.18 94 1014.2
20260905091146 81 115 0.0 0.0 0.14 0.68 0.18 93 1014.2
20260905090740 81 115 0.0 0.0 0.18 0.68 0.18 93 1014.2
20260905090137 81 115 0.0 0.0 0.18 0.68 0.18 93 1014.2
20260905085703 81 115 0.0 0.0 0.18 0.68 0.18 92 1014.2
20260905085139 81 115 0.0 0.0 0.18 0.68 0.18 92 1014.3
20260905084640 81 115 0.0 0.0 0.18 0.68 0.18 92 1014.3
20260905084233 81 115 0.0 0.0 0.18 0.68 0.18 91 1014.3
20260905083646 82 115 0.0 0.0 0.18 0.68 0.18 91 1014.3
20260905083203 81 115 0.0 3.0 0.17 0.67 0.17 91 1014.3
20260905082659 81 115 2.0 6.0 0.17 0.67 0.17 89 1014.4
20260905082155 81 115 2.0 8.0 0.15 0.65 0.15 86 1014.5
20260905081711 83 157 3.0 10.0 0.08 0.58 0.08 88 1014.6
20260905081228 83 140 4.0 10.0 0.04 0.54 0.04 86 1014.5
20260905080724 83 224 4.0 10.0 0.00 0.50 0.00 85 1014.6
20260905080220 84 123 0.0 0.0 0.00 0.50 0.00 86 1014.5
20260905075647 84 123 0.0 0.0 0.00 0.50 0.00 86 1014.5
20260905075145 84 123 0.0 0.0 0.00 0.50 0.00 86 1014.4
20260905074642 84 123 0.0 0.0 0.00 0.50 0.00 86 1014.4
20260905074138 84 123 0.0 0.0 0.00 0.50 0.00 86 1014.4
20260905073735 84 123 0.0 0.0 0.00 0.50 0.00 86 1014.4
20260905073632 84 123 0.0 0.0 0.00 0.50 0.00 86 1014.4
20260905073129 84 123 0.0 0.0 0.00 0.50 0.00 86 1014.3
20260905072647 84 123 0.0 0.0 0.00 0.50 0.00 86 1014.4
20260905072145 84 123 0.0 0.0 0.00 0.50 0.00 86 1014.4
20260905071724 84 123 0.0 0.0 0.00 0.50 0.00 86 1014.4
20260905071641 84 123 0.0 0.0 0.00 0.50 0.00 86 1014.4
20260905071219 84 123 0.0 0.0 0.00 0.50 0.00 86 1014.4
20260905071136 84 123 0.0 0.0 0.00 0.50 0.00 86 1014.4
20260905070634 84 123 0.0 0.0 0.00 0.50 0.00 86 1014.4
20260905070213 84 123 0.0 0.0 0.00 0.50 0.00 86 1014.5
20260905065640 84 123 0.0 0.0 0.00 0.50 0.00 86 1014.5
20260905065138 84 123 0.0 0.0 0.00 0.50 0.00 86 1014.5
20260905064736 85 123 0.0 0.0 0.00 0.50 0.00 86 1014.6
20260905064130 85 123 0.0 0.0 0.00 0.50 0.00 86 1014.8
20260905063648 85 123 0.0 0.0 0.00 0.50 0.00 86 1014.9
20260905063145 85 123 0.0 0.0 0.00 0.50 0.00 86 1014.9
20260905062722 85 123 0.0 0.0 0.00 0.50 0.00 85 1015.0
20260905062216 85 123 0.0 2.0 0.00 0.50 0.00 86 1015.0
20260905061747 85 123 0.0 3.0 0.00 0.50 0.00 85 1015.1
20260905061644 85 123 0.0 3.0 0.00 0.50 0.00 85 1015.1
20260905061241 85 123 0.0 0.0 0.00 0.50 0.00 85 1015.2
20260905060635 85 123 0.0 3.0 0.00 0.50 0.00 85 1015.2
20260905060133 85 123 1.0 4.0 0.00 0.50 0.00 85 1015.3
20260905055639 85 123 2.0 4.0 0.00 0.50 0.00 85 1015.3
20260905055142 85 123 2.0 5.0 0.00 0.50 0.00 85 1015.4
20260905054716 85 150 3.0 5.0 0.00 0.50 0.00 85 1015.3
20260905054132 85 117 2.0 6.0 0.00 0.50 0.00 85 1015.4
20260905053709 85 117 1.0 7.0 0.00 0.50 0.00 86 1015.5
20260905053128 85 117 3.0 7.0 0.00 0.50 0.00 86 1015.5
20260905052741 85 159 2.0 5.0 0.00 0.50 0.00 86 1015.6
20260905052136 85 127 2.0 5.0 0.00 0.50 0.00 87 1015.6
20260905051634 85 127 2.0 5.0 0.00 0.50 0.00 87 1015.6
20260905051136 84 180 2.0 3.0 0.00 0.50 0.00 87 1015.5
20260905050634 84 180 2.0 3.0 0.00 0.50 0.00 87 1015.6
20260905050133 85 180 2.0 3.0 0.00 0.50 0.00 87 1015.8
20260905045738 85 180 0.0 1.0 0.00 0.50 0.00 87 1015.8
20260905045136 85 180 0.0 0.0 0.00 0.50 0.00 87 1015.9
20260905044632 85 180 0.0 0.0 0.00 0.50 0.00 87 1015.9
20260905044150 85 180 0.0 1.0 0.00 0.50 0.00 87 1015.9
20260905043659 85 180 0.0 2.0 0.00 0.50 0.00 87 1015.9
20260905043136 85 180 0.0 2.0 0.00 0.50 0.00 87 1016.0
20260905042654 85 180 0.0 2.0 0.00 0.50 0.00 86 1015.9
20260905042135 85 180 1.0 3.0 0.00 0.50 0.00 86 1015.9
20260905041750 85 180 0.0 3.0 0.00 0.50 0.00 86 1015.9
20260905041145 85 180 0.0 1.0 0.00 0.50 0.00 86 1015.9
20260905040723 85 180 0.0 2.0 0.00 0.50 0.00 85 1015.9
20260905040641 85 180 0.0 2.0 0.00 0.50 0.00 85 1015.9
20260905040139 85 180 0.0 2.0 0.00 0.50 0.50 85 1015.9
20260905035648 85 180 0.0 2.0 0.00 0.50 0.50 85 1016.0
20260905035130 85 180 1.0 4.0 0.00 0.50 0.50 85 1016.0
20260905034648 85 180 1.0 4.0 0.00 0.50 0.50 86 1016.0
20260905034144 85 191 2.0 4.0 0.00 0.50 0.50 86 1016.0